RH
94 96 97 96 96 97 97 97 99 99 99 100 100 100 100 99 99 98 97 95 94 94 94 93 91 90 89 92 94 92 93 87 77 89 92 57 32 34 40 43 45 46 41 41 45 36 27 23 18 18 18 22 27 26 23 18 13 14 18 22 22 22 21 19 18 18 17 14 14 16 16 16 18 17 14 13 15 12 12 11 12 28 33 21 17 28 44 56
94 96 95 94 93 93 94 95 97 98 98 98 98 99 99 99 98 97 95 93 94 94 93 92 91 92 89 90 91 91 93 92 93 93 73 47 42 43 40 40 46 47 39 37 36 27 26 24 20 24 25 26 26 23 22 17 13 15 19 21 19 18 17 14 14 14 13 12 13 16 18 18 17 17 15 15 16 14 13 11 11 19 28 32 30 37 52 59
97 97 96 96 95 93 94 94 95 95 96 97 97 97 98 99 97 96 96 95 95 94 96 96 95 94 90 92 93 92 93 93 92 79 51 35 36 35 35 43 50 51 47 43 38 33 30 24 25 33 35 32 26 22 21 17 14 14 16 19 17 14 13 12 13 12 12 12 11 13 17 18 16 15 14 15 16 15 14 12 11 11 25 47 51 51 58 64
99 99 99 100 100 98 98 97 96 98 99 99 99 99 99 99 99 100 99 100 98 97 98 96 97 94 92 96 92 92 98 93 79 60 40 27 24 23 25 38 48 48 45 42 40 37 29 24 27 33 37 34 25 21 21 18 16 14 14 17 14 11 11 10 11 12 12 12 12 12 14 16 15 15 13 13 16 17 14 11 10 8 29 52 50 54 64 74
100 100 100 100 100 100 100 100 100 100 100 100 100 100 100 100 100 100 99 99 97 97 96 95 96 93 94 96 90 95 94 75 61 50 39 28 23 22 18 24 30 29 31 34 36 34 28 26 29 34 34 29 23 21 22 18 15 15 13 13 11 10 11 9 8 10 11 11 12 12 13 14 14 15 13 13 16 18 12 9 10 5 30 57 52 59 74 81
100 100 100 100 100 100 100 100 98 98 100 100 100 100 100 100 99 99 99 97 96 96 96 96 96 93 96 93 87 96 82 52 47 47 37 29 25 22 18 19 20 22 27 31 35 35 35 35 39 41 31 24 23 22 22 16 14 17 16 13 11 10 9 9 8 7 8 9 11 10 13 15 16 16 13 13 14 15 11 7 10 2 25 67 72 71 72 75
100 99 100 100 100 101 100 98 95 97 100 100 100 100 100 100 99 100 99 99 99 96 96 98 97 94 95 91 84 92 91 64 43 40 37 30 26 22 19 19 21 25 30 33 35 35 38 39 42 44 33 26 24 20 19 16 15 18 18 14 12 11 9 9 8 7 7 8 9 8 13 16 17 18 14 13 12 11 9 6 10 3 14 48 69 80 75 71
99 99 99 99 99 99 97 94 95 99 100 100 100 100 100 100 100 101 98 97 94 94 100 99 98 98 95 93 88 91 97 71 38 35 38 30 26 24 20 19 20 22 28 33 35 33 33 34 35 37 33 28 23 20 19 18 18 18 18 16 13 12 10 9 8 8 8 7 10 11 14 17 17 17 14 13 13 10 9 7 7 6 9 15 39 79 86 74
99 98 98 97 97 95 94 94 97 99 98 99 100 99 99 98 95 91 85 80 77 88 100 99 99 100 93 94 96 89 73 45 29 34 34 28 27 25 24 23 22 22 25 29 31 33 33 33 32 30 29 26 22 21 19 21 23 18 16 16 14 13 10 10 9 9 10 10 13 15 15 16 16 14 12 13 11 9 8 8 6 7 12 4 21 68 81 74
100 100 100 98 97 97 98 98 98 97 96 99 97 92 88 82 75 69 66 66 67 78 92 99 98 93 88 91 94 76 46 30 31 31 27 28 27 25 26 26 25 26 27 26 27 32 34 34 31 27 27 25 22 22 21 22 22 17 16 16 15 15 12 12 12 11 12 13 15 15 15 15 14 12 13 12 9 9 7 8 8 6 10 5 25 71 78 70
100 101 100 100 100 100 100 97 94 95 99 100 86 70 65 62 59 58 60 62 66 68 77 86 85 83 86 93 98 71 36 31 32 28 29 28 27 27 27 25 26 28 28 26 26 27 30 29 25 25 27 25 24 24 22 21 20 18 19 19 17 15 14 13 13 14 13 14 15 14 14 14 13 12 13 12 9 10 8 8 9 6 9 5 18 63 81 70
100 100 100 101 99 99 96 89 93 98 96 88 66 50 52 54 53 56 57 59 65 64 68 79 80 83 90 99 98 61 30 33 35 33 33 28 28 27 26 26 25 25 26 26 25 23 24 24 23 27 29 26 26 26 23 21 20 20 20 21 19 16 16 15 13 14 14 13 14 13 15 15 14 13 11 12 10 9 9 8 9 6 8 7 8 42 74 74
100 100 100 100 98 99 89 78 89 92 77 63 51 46 50 50 50 54 55 57 61 62 69 83 81 83 99 99 73 40 29 36 37 37 35 29 29 26 26 27 25 24 24 24 25 22 23 23 23 27 25 26 28 25 22 21 21 22 21 21 21 20 19 17 14 14 14 13 12 13 18 17 15 14 11 10 9 8 9 8 9 7 6 8 9 24 44 55
100 100 100 99 96 91 76 67 73 70 57 52 49 47 46 47 51 53 55 55 57 62 68 77 78 85 102 89 49 33 37 38 36 34 30 28 27 26 26 25 26 25 23 24 24 22 23 21 22 24 23 25 26 23 24 24 23 22 22 22 22 26 24 17 16 16 14 13 11 13 19 18 13 13 11 9 9 8 9 9 9 8 7 7 10 16 18 29
100 100 99 98 87 68 58 58 58 55 51 49 47 46 45 47 51 55 58 57 57 63 66 72 78 86 103 87 46 34 37 40 40 30 24 25 25 27 26 26 27 25 25 25 24 24 23 21 22 25 25 25 24 26 31 30 27 24 28 33 26 25 25 17 16 17 16 14 10 13 18 17 12 11 10 9 9 8 8 9 10 9 7 7 9 13 14 17
101 100 99 94 73 51 50 53 52 52 50 46 45 44 45 47 51 59 63 60 59 60 66 78 81 85 99 81 43 34 37 39 37 28 26 26 23 26 27 27 27 26 27 25 25 24 22 21 23 25 25 27 28 31 37 39 39 33 29 36 31 25 25 19 16 15 15 15 12 14 17 16 13 10 10 9 8 9 8 9 10 9 8 9 11 11 15 17
100 100 98 84 59 44 47 50 49 50 46 45 44 42 43 42 47 59 62 62 63 60 64 75 81 88 87 61 39 40 38 33 31 27 28 26 25 26 25 26 26 27 27 25 26 23 22 24 26 29 28 30 33 34 45 52 52 46 37 36 32 25 25 22 19 15 12 15 15 14 15 15 13 10 10 9 8 9 8 10 11 11 11 10 14 12 12 20
99 100 94 70 43 38 44 47 48 47 45 44 44 43 40 38 46 56 58 60 62 66 73 75 78 82 71 51 44 42 34 30 29 27 26 25 26 25 24 25 25 26 28 28 27 23 26 28 28 35 37 36 35 37 51 55 47 47 44 41 38 32 28 24 19 16 12 14 15 16 16 14 13 11 10 9 8 9 8 10 12 14 16 13 14 15 16 21
98 98 87 57 34 35 41 45 47 44 43 43 42 42 37 40 53 56 58 65 68 74 82 81 77 70 57 49 44 37 32 27 25 25 26 25 26 27 25 24 24 27 31 34 34 29 29 33 34 41 45 42 38 38 45 43 36 38 38 42 48 46 40 30 23 19 14 15 16 15 16 14 12 11 10 10 8 10 10 10 14 16 19 20 19 22 23 21
99 95 77 50 35 35 38 42 44 43 46 46 44 46 45 51 60 56 59 69 67 64 63 64 67 63 56 50 41 35 31 23 23 24 23 23 25 27 26 25 28 31 34 38 40 34 31 42 47 46 46 42 37 35 34 35 36 39 44 48 50 51 48 38 31 26 20 21 19 15 16 14 13 11 9 10 9 10 13 14 17 18 18 22 23 24 26 24
96 91 69 45 36 36 37 38 40 45 53 52 51 59 56 50 57 58 58 62 55 49 51 50 51 54 51 43 36 33 29 24 24 22 21 21 21 27 31 29 33 39 39 37 38 36 35 47 51 42 40 36 34 37 39 45 47 48 52 53 50 50 47 38 33 29 23 26 25 18 20 18 15 14 10 11 11 11 13 14 17 17 17 20 21 21 25 27
92 85 62 41 35 37 38 37 42 50 55 55 56 61 53 44 49 49 50 59 52 43 49 48 44 45 41 36 34 31 29 28 28 24 21 20 22 29 28 29 39 43 39 36 41 48 47 50 47 38 38 41 41 43 46 50 51 55 55 56 58 52 46 40 33 29 25 29 31 25 25 23 20 20 18 15 13 12 14 15 15 15 16 17 17 17 20 24
80 71 55 40 33 36 40 41 47 52 54 59 60 53 45 44 47 43 48 65 64 49 46 48 47 46 40 33 29 27 28 31 31 27 23 24 28 33 42 58 64 53 49 53 56 63 62 55 48 42 45 52 50 48 54 57 55 59 58 59 61 51 49 52 41 33 29 29 31 30 30 28 25 23 23 21 17 15 14 15 15 14 16 17 17 17 15 19
63 57 50 40 33 36 42 45 50 54 52 54 56 47 42 45 47 46 51 69 73 59 48 44 40 39 36 30 24 28 32 29 29 33 35 37 38 46 66 84 80 69 71 74 72 75 70 52 46 53 56 54 53 52 59 67 64 61 56 57 59 51 49 51 42 36 35 33 30 31 35 34 33 28 23 22 20 17 14 14 15 13 16 18 20 21 19 22
53 49 45 40 38 38 43 47 50 55 51 45 47 46 43 46 47 46 59 81 81 61 47 38 34 34 31 28 26 26 28 27 33 44 47 46 48 58 71 77 77 79 82 81 82 85 75 53 48 65 70 59 57 58 56 62 66 63 56 52 52 52 50 46 43 42 48 49 35 31 43 48 42 34 27 24 21 19 17 16 15 14 14 15 17 19 22 25
49 43 38 40 43 40 45 53 52 54 53 45 44 47 45 48 52 48 67 97 85 54 43 35 40 46 34 28 26 25 37 40 36 44 51 51 53 56 66 78 81 78 80 84 86 82 76 67 58 63 71 66 65 64 54 52 64 68 60 52 52 54 54 51 48 50 61 61 41 34 47 56 49 36 30 28 24 22 20 18 17 15 15 14 15 14 16 21
47 38 32 35 43 45 53 59 55 57 59 48 43 45 45 48 54 50 70 99 74 40 39 36 39 44 34 29 27 34 54 52 38 42 50 53 56 57 66 80 86 82 80 85 90 85 77 75 67 61 66 70 69 68 59 53 63 67 59 57 58 56 56 56 51 52 57 54 47 40 40 52 53 37 30 29 27 25 22 22 20 17 16 14 15 16 14 17
42 37 31 32 41 51 57 57 58 63 58 45 41 45 46 50 57 61 81 91 58 33 42 41 33 31 28 29 30 36 44 43 47 54 50 49 56 66 75 78 82 87 83 83 91 87 74 71 69 64 68 71 65 64 66 61 61 61 59 60 58 54 54 53 51 52 53 56 62 50 38 53 58 39 32 30 27 28 24 22 22 18 18 15 15 15 13 15
40 37 32 31 40 48 52 54 62 62 47 41 46 46 47 56 62 75 87 71 41 36 44 41 36 32 33 36 37 39 37 39 49 49 46 51 53 60 75 78 78 83 80 79 86 82 71 67 63 62 70 69 56 56 64 63 60 63 66 65 58 54 54 52 53 54 60 71 73 55 42 56 60 41 36 36 31 30 26 22 21 19 18 17 16 15 14 15
37 37 33 33 40 45 47 48 50 47 40 46 52 45 51 69 75 85 86 56 39 44 39 36 40 39 42 49 48 44 43 45 44 37 41 55 61 63 69 70 72 80 82 82 86 81 68 60 59 63 66 59 53 54 59 61 64 72 79 75 68 65 63 60 58 58 71 79 68 52 44 52 61 48 39 40 33 28 26 23 22 21 19 19 18 16 15 15
34 34 33 35 40 44 49 48 41 40 47 54 53 51 65 83 86 85 70 45 48 55 42 42 46 42 47 56 56 50 49 50 44 42 47 54 72 84 80 76 80 88 90 91 90 78 67 64 66 67 59 52 56 57 60 65 68 77 86 83 78 78 75 72 67 67 81 81 59 47 44 50 63 54 37 36 30 25 25 23 22 20 19 19 18 17 16 15
34 32 32 37 42 45 50 48 39 43 55 56 54 68 85 90 83 74 56 44 57 60 48 49 48 47 53 58 59 55 55 56 48 50 56 60 81 94 88 88 91 92 90 89 88 78 69 65 61 64 63 62 65 66 74 76 68 73 84 85 85 86 87 86 80 80 86 76 53 45 50 57 60 47 34 34 29 25 24 21 20 19 17 18 16 16 16 16
34 36 39 44 50 51 46 40 36 45 55 53 59 77 91 91 75 60 54 51 55 51 45 49 48 51 59 62 65 60 57 58 53 57 60 62 84 94 86 86 87 91 92 90 92 89 80 66 54 56 61 63 63 64 78 77 64 66 73 82 89 88 94 96 86 85 83 68 51 43 52 63 59 42 32 32 28 25 24 21 20 19 18 19 16 17 18 16
33 40 45 48 53 52 42 33 33 44 52 58 71 77 76 78 66 53 55 51 46 44 45 50 50 54 62 62 64 66 67 66 58 64 67 66 84 95 92 90 80 83 93 93 91 90 90 84 65 51 52 60 58 53 65 68 64 64 59 70 82 80 90 93 80 82 80 71 61 48 54 68 63 48 33 28 27 26 24 22 21 21 19 18 17 18 19 17
34 39 44 41 44 45 35 27 30 41 53 65 82 80 68 65 58 54 57 49 45 46 48 55 54 61 69 65 65 68 70 71 64 69 75 72 81 90 94 94 79 79 94 95 88 85 90 86 63 44 45 56 56 47 51 57 64 66 55 64 76 70 78 82 75 76 74 79 77 61 62 64 52 43 33 27 28 24 24 23 21 21 20 18 18 18 19 18
39 42 42 35 37 39 30 28 29 35 54 74 82 72 57 50 47 47 47 45 47 48 55 68 65 69 79 74 76 74 64 68 73 80 80 72 76 84 91 91 78 77 91 97 93 88 91 84 60 50 51 49 49 47 44 46 59 65 59 62 62 55 64 77 81 76 71 84 82 63 65 58 42 41 33 26 28 23 23 23 20 20 20 19 19 17 18 19
46 48 45 35 36 33 28 32 28 33 64 85 78 59 43 39 40 41 42 43 47 48 61 77 69 68 80 80 81 78 68 72 78 86 87 79 78 78 82 86 76 75 86 94 93 85 90 90 65 56 58 44 37 41 38 35 44 57 59 54 46 44 54 66 79 81 79 88 80 62 61 54 50 56 41 28 29 25 21 20 20 24 23 22 21 20 22 19
54 59 53 37 30 28 31 33 26 45 80 81 67 56 43 38 39 40 42 43 45 52 64 75 69 66 74 81 82 75 72 80 84 90 91 82 75 67 71 82 78 77 83 87 91 82 83 93 71 51 55 48 37 43 50 42 34 38 44 40 40 55 65 64 71 81 84 89 82 66 59 51 50 52 40 33 30 29 34 35 36 43 41 40 41 39 38 32
62 71 59 35 30 32 32 31 38 72 92 70 59 59 44 36 37 40 45 44 46 58 65 67 68 69 69 74 79 75 76 84 87 93 91 81 72 61 66 81 78 76 78 80 92 90 83 96 85 55 49 53 51 59 72 68 50 37 35 34 37 52 63 61 64 71 75 82 81 70 63 56 46 38 34 33 26 31 55 67 64 64 61 59 59 56 54 51
71 76 57 32 32 36 33 39 55 79 80 58 53 53 41 39 39 40 47 46 46 55 60 60 66 71 69 68 72 76 81 86 88 94 94 86 78 67 68 80 77 70 66 64 78 89 87 96 93 66 54 66 73 71 74 78 74 62 53 49 47 48 51 51 54 57 61 71 77 74 69 56 44 38 33 31 31 42 66 79 76 71 64 59 57 56 57 58
77 73 53 33 29 31 36 47 53 59 63 59 54 48 43 44 43 42 46 45 46 49 49 55 63 68 70 72 76 81 88 92 90 94 96 88 82 77 70 69 70 69 68 66 71 84 90 95 96 84 75 80 76 62 56 64 74 80 77 72 70 69 66 67 66 54 48 56 63 69 70 54 42 40 32 36 57 69 73 74 72 68 60 54 52 52 54 58
76 64 45 34 29 25 36 54 58 60 64 57 50 47 43 45 47 45 44 44 47 47 44 51 63 66 68 75 81 86 95 97 93 93 94 84 77 76 67 61 68 72 71 73 75 76 84 95 100 93 85 78 64 54 57 58 62 77 86 87 90 88 82 85 83 66 57 55 49 59 70 58 51 52 49 59 73 73 68 67 65 61 55 52 50 48 52 59
78 66 43 31 28 27 43 65 72 71 67 52 44 45 42 47 53 46 44 48 48 48 49 54 64 65 65 69 74 83 95 96 93 93 92 84 74 66 61 66 73 69 66 78 84 79 84 98 101 91 83 77 70 73 80 74 72 84 91 93 99 97 87 85 83 80 85 77 63 74 80 65 66 71 67 71 70 60 63 67 66 61 54 53 51 49 52 59
86 85 65 36 22 30 49 63 67 67 68 61 55 50 45 49 53 45 45 50 47 50 55 55 60 63 63 63 65 78 92 92 88 89 87 86 80 65 61 69 71 65 68 83 92 88 90 99 100 94 90 85 84 91 93 89 91 97 97 97 100 98 94 92 87 90 99 87 74 88 84 65 73 77 67 68 68 61 64 68 70 66 57 53 52 51 55 60
81 82 76 48 30 42 53 52 57 63 66 67 63 57 53 50 49 45 45 47 47 52 55 53 56 59 60 64 67 74 86 90 89 88 86 88 84 68 61 66 65 63 65 70 79 90 96 98 100 99 97 94 92 90 89 92 97 99 99 100 100 99 99 98 94 95 96 82 74 85 78 63 75 84 76 77 76 71 71 71 72 72 67 61 56 55 59 61
67 62 71 65 54 63 64 55 61 67 68 72 66 57 57 55 50 45 44 47 49 50 52 53 55 58 59 65 70 74 81 88 90 88 90 94 90 73 61 61 64 65 63 60 69 90 102 99 98 101 100 97 94 89 86 93 99 98 96 97 98 100 100 98 97 95 90 83 79 79 70 63 72 79 78 78 78 78 78 75 75 77 75 70 62 60 62 62
64 60 68 70 66 72 69 62 68 72 72 72 62 53 58 59 54 49 44 45 48 50 54 57 56 60 64 66 73 81 83 86 89 91 92 90 83 71 58 58 66 67 62 59 65 85 102 98 93 98 100 95 95 95 94 96 100 98 97 97 97 99 100 100 99 93 91 93 88 79 76 78 76 73 72 72 72 74 72 68 69 71 72 69 66 66 63 61
66 68 67 64 71 79 72 63 68 77 77 68 57 54 59 59 58 55 49 47 49 50 57 63 60 60 65 66 74 85 82 77 83 87 83 77 74 71 63 61 68 70 67 66 66 77 97 100 90 93 98 94 92 93 92 95 100 100 99 100 99 98 100 100 96 93 96 99 88 78 83 89 83 75 71 67 68 73 71 66 66 68 69 68 66 65 62 61
69 80 76 67 75 85 78 70 72 79 77 67 61 59 57 60 61 56 50 53 56 53 55 63 64 62 65 67 73 82 79 75 80 78 70 68 69 72 73 70 69 69 67 68 68 77 95 99 89 93 100 93 84 83 83 87 94 99 101 100 99 99 100 100 97 96 98 98 90 86 91 91 80 72 67 62 63 70 74 74 75 74 72 68 63 62 64 69
68 79 82 80 84 87 83 77 72 71 68 64 65 61 54 59 65 60 56 56 57 57 56 62 66 65 66 69 72 74 69 69 78 76 67 70 72 72 78 77 71 67 65 66 72 82 94 93 85 92 100 89 76 76 78 81 92 100 99 97 97 97 96 97 97 97 98 99 94 94 99 94 80 72 70 65 64 72 81 86 87 86 85 82 77 76 79 81
61 62 71 86 95 90 81 72 67 71 72 67 67 65 59 63 68 66 65 60 54 56 60 65 69 67 65 69 71 69 63 63 72 70 63 66 70 69 71 69 65 69 72 71 74 82 89 92 91 96 101 87 72 73 79 83 93 98 95 95 98 98 98 99 98 98 100 100 96 97 100 92 78 75 74 69 71 84 96 98 96 96 98 98 96 93 88 78
69 64 67 81 93 90 79 70 71 77 75 68 67 67 64 68 70 67 68 68 57 52 60 67 67 66 70 72 68 62 60 62 62 61 58 60 62 63 63 60 60 69 79 80 82 85 90 96 97 98 100 87 71 76 85 87 90 93 93 95 98 100 100 98 98 98 97 98 99 100 96 85 74 75 78 78 85 96 100 99 99 100 100 99 99 98 84 61
Wind_Speed
20 21 21 21 22 21 21 22 22 21 21 21 21 20 20 20 20 20 19 19 20 20 19 19 19 19 19 19 20 21 23 26 27 23 13 11 11 9 9 11 12 11 7 5 8 9 9 9 10 9 6 3 2 3 4 4 2 1 2 4 6 8 9 6 4 4 4 6 6 3 3 2 3 6 4 4 8 7 7 8 7 6 8 11 12 22 31 33
20 21 22 22 22 22 22 22 22 22 21 21 21 20 20 20 20 19 19 19 19 19 19 18 18 18 18 18 18 19 23 24 24 21 13 6 4 6 9 10 11 11 6 6 8 6 5 5 7 8 3 2 2 3 3 3 3 3 3 3 7 8 6 3 3 6 6 9 9 4 2 2 2 5 4 4 7 7 7 9 12 12 15 17 7 21 30 34
21 21 22 22 22 22 22 22 22 22 21 21 20 20 20 19 19 19 18 18 18 18 18 18 17 17 17 17 17 18 21 20 14 10 5 6 3 1 3 7 11 12 11 10 9 8 7 8 9 6 2 3 3 4 4 3 3 4 4 5 9 7 5 5 6 8 8 9 13 10 4 3 4 4 2 2 4 6 6 6 9 12 13 15 6 11 18 24
21 22 22 22 22 22 22 22 22 22 22 21 21 20 19 19 19 19 18 18 18 18 18 18 17 16 16 16 16 17 16 11 5 4 3 5 5 6 2 4 9 10 10 9 9 10 10 10 9 4 2 4 3 4 4 4 3 3 5 7 9 5 5 8 8 9 9 9 13 13 8 6 6 2 3 1 3 4 4 3 5 8 8 9 11 7 4 1
21 22 22 22 23 23 22 22 23 23 22 22 21 20 20 19 19 19 18 18 18 18 18 17 16 16 15 15 16 15 9 3 2 3 2 3 5 5 2 1 2 2 2 3 4 7 8 8 6 3 2 3 3 2 4 5 4 4 6 9 10 6 7 10 10 10 10 9 12 13 10 7 4 2 3 1 3 2 5 5 6 7 6 2 3 7 11 12
22 22 23 23 23 23 23 23 23 23 22 22 21 20 20 19 18 18 18 18 18 18 18 17 16 15 14 16 14 8 2 1 4 4 3 2 4 3 1 3 4 2 1 1 3 3 4 4 3 2 2 2 4 4 5 6 5 5 7 8 9 8 9 11 10 12 12 10 10 10 7 3 1 4 4 2 4 5 6 7 8 8 4 4 4 3 8 9
22 23 23 23 24 24 24 23 23 23 23 22 21 21 20 19 19 18 18 18 18 18 18 17 16 14 14 14 7 0 1 5 8 6 5 3 2 1 3 5 4 0 2 1 2 2 2 3 3 3 3 3 5 5 6 6 5 6 7 7 9 9 10 11 11 13 14 13 12 10 8 5 5 5 4 4 4 6 8 7 9 8 4 4 3 5 7 5
22 23 24 24 25 25 24 24 24 24 23 22 22 21 20 20 19 18 18 18 18 18 17 16 15 11 12 10 3 1 2 6 6 3 6 4 2 1 3 5 5 5 5 3 4 3 2 3 4 3 3 4 4 4 5 5 5 5 6 7 8 9 11 12 12 13 14 13 11 9 8 7 7 4 3 5 5 7 7 7 8 5 4 4 2 6 5 1
23 23 24 25 25 25 25 24 24 24 24 23 22 21 20 19 18 18 18 18 18 17 15 14 12 8 7 5 1 1 3 5 3 1 5 4 3 2 2 3 5 6 6 6 8 6 2 2 4 3 3 5 5 5 5 4 4 4 6 8 9 10 11 10 10 12 13 8 6 8 7 7 6 2 2 6 6 6 6 6 9 6 5 6 2 5 5 4
23 24 23 24 24 25 25 25 25 24 24 24 23 21 21 19 18 18 17 18 18 15 12 11 8 4 3 2 1 1 3 2 2 2 4 3 5 3 3 3 4 7 7 9 10 7 5 5 5 5 5 5 4 5 4 3 3 5 8 9 10 11 9 7 7 9 9 5 6 7 6 7 4 2 3 5 4 4 7 7 9 10 8 6 2 3 4 5
24 24 25 25 24 25 25 25 26 25 24 23 23 21 20 19 18 17 16 16 15 12 9 9 7 2 1 1 2 2 2 1 1 3 3 4 6 5 3 4 7 9 9 9 12 11 9 7 6 5 3 3 5 6 5 4 4 8 8 10 11 10 7 6 5 7 5 3 7 5 5 7 2 2 4 6 5 5 7 8 8 10 10 6 4 3 3 4
25 25 26 26 26 26 26 27 26 25 24 23 22 21 20 19 18 17 15 13 12 8 7 8 5 2 2 2 4 5 1 1 3 6 7 6 6 6 5 6 8 10 10 8 9 12 11 10 8 4 3 4 6 5 5 6 6 8 7 8 11 9 7 6 4 5 4 4 6 2 6 8 3 4 6 6 8 6 7 8 8 9 10 6 4 4 4 5
25 26 26 26 27 26 27 27 25 24 24 23 22 21 20 19 18 18 15 11 9 6 7 6 3 1 2 2 7 5 5 6 8 9 12 11 8 8 9 10 9 11 13 10 10 11 12 13 8 4 5 4 5 4 5 7 6 7 7 5 7 7 5 5 3 4 5 4 3 1 4 8 5 7 7 6 8 8 8 8 7 9 10 7 5 5 5 6
26 26 27 27 27 26 27 27 26 25 25 23 22 20 20 20 19 19 14 9 6 4 6 4 1 1 1 5 8 6 8 9 9 11 12 12 12 11 12 12 11 11 13 14 16 14 14 15 9 4 4 4 4 5 6 6 3 5 7 4 3 4 4 5 3 4 7 5 2 2 3 8 9 9 7 6 7 9 11 8 7 9 9 7 5 6 6 6
26 26 27 27 26 27 28 28 26 26 25 24 22 21 20 20 18 16 10 5 4 3 4 2 2 1 2 7 9 8 7 5 10 14 13 14 14 11 14 17 16 14 13 15 17 17 16 12 5 2 3 3 3 5 5 4 3 2 3 5 3 3 4 8 7 6 7 7 1 2 4 8 11 13 9 7 7 7 12 9 7 9 10 8 5 6 6 6
26 27 27 27 27 28 28 27 26 25 25 23 22 22 19 17 15 10 4 2 4 3 2 1 1 2 1 5 8 8 5 6 11 14 14 17 17 15 16 17 18 18 17 17 18 18 14 7 2 3 3 3 3 3 4 4 4 2 1 4 5 5 5 7 8 6 7 7 2 4 5 8 9 12 10 8 8 8 12 9 6 9 10 8 6 6 6 5
26 27 27 27 28 28 27 25 24 24 24 23 24 22 15 13 14 6 0 3 4 5 3 1 0 1 2 7 8 7 6 7 12 14 16 19 20 22 17 10 10 15 17 15 15 12 6 3 2 2 1 1 0 1 3 3 3 3 2 3 5 6 5 5 8 7 6 5 7 6 7 11 12 12 9 7 10 11 12 10 6 8 9 8 6 6 6 5
26 26 27 28 28 27 24 24 23 23 23 22 24 20 10 11 12 3 4 5 4 2 2 2 1 2 3 6 5 8 14 12 13 15 16 17 20 23 16 7 4 6 6 6 8 6 2 2 2 1 2 1 1 2 1 3 3 4 5 4 4 6 5 7 8 8 9 7 9 9 9 15 17 14 10 8 10 10 12 11 6 7 9 9 6 7 6 5
27 27 27 28 28 24 21 22 21 23 23 21 22 16 7 10 7 1 5 6 3 1 1 2 1 1 4 9 8 16 23 15 11 11 14 17 19 21 15 8 2 1 0 1 4 5 3 1 1 1 3 3 4 5 6 7 8 8 7 5 5 6 6 8 10 9 10 10 9 10 12 16 17 15 12 10 10 9 10 10 4 6 7 7 5 6 5 5
27 26 27 29 27 21 19 20 20 23 23 19 20 12 5 8 4 1 1 3 3 4 4 5 5 3 8 11 11 19 21 10 6 8 13 14 13 13 9 5 1 1 1 2 4 4 4 3 3 5 6 7 8 8 8 8 8 7 6 6 6 8 8 8 11 11 9 10 8 10 12 12 13 15 15 12 10 9 8 8 5 5 6 6 5 6 5 6
27 27 28 29 26 20 17 18 19 21 20 16 15 7 2 4 3 3 5 3 5 9 9 9 9 10 13 14 16 20 14 3 3 8 13 9 5 7 4 4 2 1 4 5 5 3 3 5 6 8 9 11 10 8 6 3 3 4 4 5 7 7 8 9 11 11 8 7 7 8 10 8 9 11 12 11 9 9 8 9 8 5 7 6 5 6 6 5
27 27 29 28 24 19 16 17 17 16 17 14 11 4 0 3 3 3 5 5 7 6 8 10 10 12 16 20 25 23 10 2 5 8 9 5 4 3 1 3 1 3 4 4 4 4 4 6 7 8 8 8 8 7 6 3 4 5 3 4 6 6 8 10 10 8 5 4 6 9 9 7 8 8 5 5 7 8 8 8 8 7 6 6 6 6 6 4
28 28 30 27 21 16 15 16 13 14 16 12 9 5 2 4 4 7 5 3 7 5 5 6 6 7 10 13 17 12 4 3 4 6 9 6 1 2 3 3 6 7 7 4 3 4 4 6 6 8 6 6 7 7 4 4 5 5 5 5 6 6 6 8 9 8 7 6 7 9 9 6 6 6 5 5 5 5 6 6 6 7 7 7 7 5 6 6
31 30 29 26 19 14 15 13 10 15 15 8 6 5 5 7 8 9 4 1 4 6 5 5 4 4 5 8 8 2 2 3 1 5 12 10 3 3 4 2 4 7 6 5 6 6 8 10 6 3 2 3 7 6 4 3 6 7 8 8 7 8 8 8 10 11 10 9 7 7 7 5 3 4 6 5 4 5 5 6 7 8 7 6 5 5 5 5
32 30 28 24 18 14 12 8 10 17 14 7 8 9 10 12 11 7 3 1 3 5 4 3 3 2 5 9 8 2 2 2 5 5 8 10 5 2 2 2 1 4 3 4 6 6 8 11 5 1 4 5 4 5 5 6 5 6 8 10 10 9 9 9 9 8 7 7 5 3 3 5 4 4 7 4 3 5 5 6 9 10 10 7 5 5 6 6
31 28 25 22 17 15 10 3 10 17 10 5 10 13 14 13 9 5 3 3 3 3 2 1 0 3 6 9 8 2 2 3 5 7 7 5 3 0 1 1 2 2 1 1 2 4 4 7 8 4 5 7 5 5 6 6 5 5 5 8 9 7 8 9 9 6 3 5 4 3 1 5 6 6 7 6 5 7 6 7 9 9 9 8 7 6 6 6
29 25 22 18 15 14 8 3 11 13 3 5 13 16 17 14 7 4 3 4 3 3 3 4 3 4 6 11 11 3 4 4 4 9 7 2 1 1 2 2 2 1 1 1 1 3 1 5 10 8 4 5 4 4 4 4 5 5 4 6 7 7 9 9 8 7 4 3 5 2 2 3 7 8 6 4 7 8 7 8 8 8 9 9 9 8 6 6
27 22 18 14 12 10 7 7 11 7 4 10 15 17 19 14 5 2 4 4 3 3 2 4 7 7 8 11 10 5 5 5 4 5 3 3 1 1 1 2 2 2 3 2 2 3 2 6 10 9 4 4 6 6 5 5 5 4 1 1 3 6 7 7 6 5 1 2 6 4 2 2 6 8 4 2 6 9 9 11 9 8 9 10 10 10 10 8
25 18 14 11 8 6 8 9 8 6 10 13 14 19 20 10 3 3 4 2 3 3 0 3 7 8 9 8 7 7 5 5 4 5 4 3 3 3 1 2 1 3 5 6 5 6 5 8 9 7 5 6 8 7 8 9 7 2 2 4 3 4 4 5 4 4 1 1 8 9 5 3 7 9 5 2 6 9 9 10 9 8 9 9 10 11 12 10
22 15 12 10 5 4 9 11 8 9 14 14 16 22 17 4 4 5 3 2 3 3 2 3 6 8 10 8 6 9 8 4 4 6 6 3 5 5 1 1 1 2 3 5 8 10 9 9 7 5 7 8 7 5 7 9 6 3 3 2 4 4 3 3 2 1 2 2 13 12 8 6 6 7 5 4 7 9 9 9 9 9 9 9 9 9 11 10
20 13 10 9 6 5 7 8 8 9 12 15 19 18 8 3 4 4 3 3 2 4 3 4 7 9 10 8 6 9 8 5 5 8 7 3 3 6 4 3 3 2 2 2 4 8 9 7 4 4 7 6 2 3 2 4 4 4 3 2 2 3 2 2 1 2 1 7 12 7 8 8 6 7 6 6 8 11 10 11 13 13 12 10 9 9 10 10
16 9 7 8 8 8 8 7 9 10 11 17 17 8 4 4 4 3 1 3 2 4 3 4 7 7 7 7 6 8 7 5 6 8 7 3 2 4 2 1 2 3 4 4 5 6 7 6 4 2 2 2 3 1 3 1 3 3 3 3 1 1 1 1 1 1 3 8 8 2 6 6 7 10 14 11 11 12 11 11 12 14 15 13 11 11 10 9
13 8 6 8 10 11 10 9 10 10 13 16 11 4 5 4 3 3 4 2 2 4 3 3 5 5 5 5 5 7 6 4 6 8 7 3 2 3 1 1 1 1 1 3 5 5 5 6 3 1 2 1 4 2 2 2 3 4 4 4 3 2 1 2 3 1 4 7 8 1 5 4 4 9 18 19 16 15 14 12 12 12 14 15 13 11 9 9
10 7 7 9 11 11 9 9 10 10 13 12 6 4 7 5 1 3 3 2 3 4 3 3 5 6 5 3 3 5 4 3 6 9 7 4 3 2 3 3 0 1 2 2 3 2 3 5 3 0 1 1 3 5 5 3 3 4 4 5 3 3 3 3 3 3 4 4 5 2 3 5 5 6 12 15 13 12 13 13 14 13 12 13 12 8 7 9
7 6 7 8 10 9 8 9 8 7 8 6 5 4 6 3 2 2 2 4 3 3 4 4 5 5 4 4 4 3 3 2 6 8 6 3 3 2 2 3 2 0 1 2 2 1 2 5 5 4 4 4 5 4 4 4 0 2 2 4 2 4 4 2 3 5 3 3 4 3 2 5 5 6 9 10 9 8 10 11 13 15 15 14 12 9 7 7
6 4 5 7 9 7 7 7 5 4 3 4 5 4 4 1 2 2 2 4 3 4 5 5 4 4 4 4 4 3 2 3 4 5 4 4 4 3 3 3 2 1 1 1 2 2 3 5 6 9 10 5 6 5 5 4 1 1 2 2 4 5 6 2 3 2 2 4 5 3 4 5 4 8 12 13 14 11 10 10 11 13 15 14 14 12 9 7
7 4 3 8 9 6 4 5 4 3 2 5 5 4 3 1 2 2 3 3 4 4 4 4 4 3 3 4 4 5 6 5 3 3 4 4 4 2 2 2 2 2 2 1 2 1 3 8 8 7 8 5 2 3 5 7 5 3 2 4 2 2 2 2 1 2 1 5 5 4 8 9 4 5 8 10 14 14 13 13 11 10 10 10 11 10 7 7
9 4 3 10 13 7 3 3 3 2 4 5 4 4 3 2 3 3 3 3 3 4 5 2 2 2 3 4 4 6 7 6 5 4 3 3 3 3 1 2 3 2 4 3 2 1 2 6 5 5 7 5 6 5 3 6 6 6 5 3 3 1 1 1 2 2 3 4 5 4 9 10 7 7 7 9 12 12 10 10 8 6 6 5 6 6 5 6
9 4 3 13 17 10 5 3 1 3 5 5 3 2 2 3 4 3 3 4 3 4 4 2 2 1 3 4 5 6 4 4 7 4 2 1 3 6 3 1 3 4 4 5 3 1 1 3 4 3 2 6 6 3 2 3 4 7 7 3 2 3 3 3 3 3 3 4 5 3 5 7 7 7 9 13 13 11 7 6 5 5 5 5 5 5 5 5
7 3 1 14 21 12 5 3 2 5 4 2 2 2 3 2 3 4 5 5 3 2 2 2 3 3 3 4 5 5 2 4 5 2 0 2 4 6 2 1 3 8 7 5 4 2 2 3 4 3 2 4 4 4 4 3 2 4 5 5 4 3 2 3 4 3 3 4 4 4 6 8 5 6 10 15 13 10 7 4 4 5 5 5 5 6 6 5
5 3 1 16 24 12 0 2 3 3 3 2 2 3 4 2 3 6 6 5 3 1 1 2 3 3 3 4 4 3 3 4 2 1 1 2 3 3 2 4 6 8 9 7 4 2 2 3 5 6 5 4 7 7 8 9 7 5 5 4 4 3 3 5 5 4 5 5 5 4 8 11 4 6 10 11 7 7 7 5 5 5 6 7 5 6 7 7
4 2 3 16 23 11 5 5 4 1 3 3 2 2 3 2 3 5 5 4 3 2 2 2 1 3 3 3 2 1 2 3 2 1 2 4 5 4 5 8 9 8 6 6 4 3 3 3 5 8 7 9 15 12 7 9 10 8 6 4 3 2 4 5 5 4 3 6 6 4 8 12 4 7 6 6 6 6 5 4 5 7 8 7 7 8 9 9
3 2 5 15 21 11 7 5 5 3 2 4 2 3 4 1 2 4 3 3 3 2 3 0 2 2 2 2 2 1 1 2 3 3 3 4 6 7 8 10 10 8 5 4 3 2 3 2 4 7 7 9 12 7 3 3 4 6 6 6 6 6 7 7 4 2 2 5 5 3 8 11 3 8 7 5 4 4 4 4 6 8 8 9 10 10 10 10
1 3 4 14 22 13 7 3 3 4 4 4 3 5 5 1 1 3 4 2 2 1 2 2 2 2 2 2 3 2 2 1 3 4 4 4 4 6 9 11 10 7 4 2 1 1 3 2 2 7 7 5 5 3 3 3 0 3 5 7 9 10 10 8 4 3 5 7 8 5 10 10 3 6 7 7 7 8 9 9 9 10 11 11 11 11 10 10
2 2 3 10 17 11 5 3 2 3 5 4 4 4 5 3 1 2 3 2 1 1 1 3 4 4 4 3 3 3 3 3 3 3 3 3 4 6 8 10 9 6 5 6 3 2 3 2 2 5 6 6 7 7 7 4 1 3 4 6 10 12 12 9 5 6 8 7 10 9 13 8 3 6 6 8 10 11 12 12 12 12 13 13 12 11 11 10
2 2 3 7 9 7 3 1 4 3 5 4 3 3 5 5 4 4 4 2 2 2 2 3 4 4 4 4 5 5 3 4 4 4 3 4 4 4 6 8 8 8 9 10 5 2 2 3 5 6 6 8 10 13 12 7 5 7 9 10 11 10 12 8 4 7 8 6 8 12 14 14 8 7 8 9 11 12 13 13 13 13 14 15 14 13 12 10
3 1 2 3 4 4 4 4 5 4 5 2 2 2 4 5 5 4 4 3 2 2 2 2 3 4 8 8 6 5 4 3 5 5 5 5 4 5 9 8 6 8 8 7 3 1 2 4 5 7 10 12 14 17 17 12 9 11 13 14 13 10 9 8 8 9 4 3 9 9 8 14 17 11 9 11 12 12 13 14 14 15 16 16 15 15 15 13
3 1 1 1 1 2 3 5 6 6 7 2 1 2 4 5 6 4 3 4 4 3 2 3 4 6 10 11 5 3 5 4 3 4 4 5 5 7 9 7 5 5 4 4 3 1 2 5 4 5 11 15 16 17 17 14 11 10 10 12 14 14 10 6 12 13 4 5 12 8 5 12 17 14 13 12 10 10 12 13 11 12 13 14 15 16 16 16
3 1 2 1 0 2 3 6 7 5 6 5 3 4 5 5 7 6 4 3 4 4 2 4 8 9 10 9 4 3 6 6 5 6 6 6 7 5 5 6 6 4 4 5 5 1 1 4 6 7 12 17 16 14 13 11 9 6 5 7 10 13 13 9 9 11 8 11 15 14 13 16 16 16 16 14 11 10 11 11 12 13 14 16 18 18 17 16
2 1 3 3 3 4 3 5 5 3 4 5 4 4 5 5 8 7 4 2 3 6 5 6 11 10 8 8 4 4 8 7 6 9 7 7 7 2 1 3 4 4 7 7 5 0 1 4 8 7 8 13 15 13 13 14 11 6 4 9 15 17 15 10 9 9 6 10 12 12 12 14 13 12 12 12 11 9 8 7 8 10 10 11 15 16 15 13
4 3 2 2 2 4 2 4 4 3 4 5 4 5 5 6 8 8 5 3 2 5 7 8 12 10 6 6 6 8 12 10 9 12 10 8 6 3 2 3 3 6 8 8 6 3 1 4 8 5 4 10 14 15 17 18 12 6 12 22 24 20 14 8 5 8 8 8 9 8 7 8 8 7 7 9 9 6 6 5 5 4 5 4 4 8 10 10
7 4 2 2 1 3 3 4 4 4 3 4 5 5 5 6 7 6 4 4 4 6 8 7 9 9 6 8 11 13 14 12 11 13 9 7 8 6 5 6 5 6 6 6 6 4 2 4 7 5 3 9 15 17 19 16 9 7 15 23 22 17 13 9 6 9 13 8 4 4 5 7 8 7 6 9 7 5 5 7 9 9 10 9 5 4 6 11
Wind_Direction
345 344 343 342 341 339 337 336 335 333 332 330 329 329 328 328 326 326 326 324 324 323 323 325 323 324 324 323 323 324 325 321 318 316 298 283 286 264 249 251 264 290 303 283 277 285 301 302 305 303 290 276 211 213 255 241 187 206 210 222 243 239 235 229 219 238 287 289 266 267 281 261 312 324 313 354 5 354 336 332 347 352 348 321 248 186 168 165
344 343 342 341 340 338 338 336 334 333 332 331 330 329 328 328 327 327 326 325 326 325 325 326 324 325 324 324 324 325 324 319 313 299 289 321 309 240 238 243 254 268 255 243 256 268 294 294 308 319 301 236 227 209 220 227 192 195 208 228 240 240 249 264 249 256 273 278 282 295 328 333 315 311 333 16 344 347 359 340 346 360 359 338 264 172 165 163
342 342 340 339 338 337 337 335 334 332 330 330 329 328 328 327 327 326 325 325 325 324 324 324 325 325 324 325 323 325 323 318 309 284 306 29 48 179 229 242 250 254 252 252 252 256 271 283 298 315 301 256 241 220 213 214 218 209 209 241 247 251 284 282 258 258 259 273 284 284 305 321 288 299 329 45 353 348 356 338 351 356 350 341 328 158 167 167
340 340 339 338 337 336 336 334 333 332 331 330 328 328 328 326 326 325 324 324 324 324 324 324 325 324 325 324 322 326 323 318 301 264 346 45 54 46 41 261 256 254 257 255 250 251 261 279 294 300 269 273 251 220 224 214 220 222 208 238 257 272 291 272 263 267 265 270 275 280 291 285 278 282 280 37 52 339 315 326 349 334 328 344 349 12 36 261
340 338 338 338 337 336 336 335 333 332 331 329 328 328 327 326 325 324 324 323 323 323 323 323 323 323 323 320 321 323 325 344 280 267 330 29 41 37 37 225 217 228 233 234 256 257 259 271 284 285 243 257 262 239 242 224 212 243 241 246 260 265 268 267 269 271 268 268 269 277 278 269 286 283 278 357 114 228 277 309 317 310 312 19 11 11 26 353
339 338 338 337 336 336 335 334 333 332 330 329 328 327 326 325 323 322 322 321 322 321 321 320 319 322 320 316 320 316 320 357 271 270 289 324 24 36 107 145 137 110 166 219 289 281 272 268 272 278 263 265 263 253 257 243 213 240 259 259 260 254 255 262 263 262 263 260 259 265 259 222 275 268 253 201 169 210 257 293 296 298 284 168 143 64 44 349
339 338 337 337 336 335 334 334 332 331 330 329 327 325 324 323 321 321 319 319 319 318 319 317 317 319 316 320 330 14 206 273 268 259 253 278 14 343 200 179 167 44 299 295 311 303 291 279 283 272 270 279 258 246 256 261 242 243 262 268 269 263 257 259 256 256 258 257 255 257 252 217 208 242 242 216 199 223 256 281 283 296 286 198 143 75 65 332
338 338 337 336 335 334 334 333 331 331 330 328 326 324 322 321 319 318 318 319 320 319 318 316 317 314 315 329 7 114 238 261 277 248 229 235 49 356 221 220 243 274 289 279 256 255 286 289 278 266 266 266 257 269 284 293 281 261 266 272 274 269 262 261 257 253 253 254 256 251 249 234 215 220 236 234 225 239 262 280 282 311 348 310 58 98 104 339
337 337 336 336 335 334 333 331 332 330 329 328 325 323 320 319 318 318 322 325 328 324 318 319 319 312 315 325 16 337 256 255 309 147 204 203 109 96 228 246 259 267 277 275 262 249 249 272 258 258 279 279 277 284 291 293 285 283 287 287 279 274 272 270 266 260 253 243 234 236 251 260 247 244 265 244 221 239 270 290 297 313 329 325 60 134 164 162
336 335 335 335 334 332 332 331 331 329 328 326 322 321 319 320 322 324 328 330 337 333 323 328 325 315 316 316 81 349 275 284 311 192 195 175 134 151 221 282 274 257 265 275 273 254 228 240 263 279 280 287 292 287 293 264 271 302 300 296 284 276 276 274 286 283 268 236 209 216 244 258 249 230 265 271 240 248 283 294 297 297 293 292 135 151 216 178
336 335 334 334 332 332 331 331 331 329 326 323 322 322 321 325 325 328 331 330 340 340 326 333 335 333 312 341 102 231 229 114 287 256 234 186 172 197 225 293 278 255 257 263 269 265 253 267 309 320 278 309 323 303 299 281 300 314 311 309 295 280 273 274 298 299 297 262 225 214 258 260 230 198 220 254 262 243 263 271 272 277 280 270 180 161 231 223
336 335 334 333 332 331 330 330 330 327 326 325 326 325 325 327 325 327 327 324 336 336 317 334 350 3 341 309 211 232 233 87 292 287 266 229 214 243 262 284 270 251 255 258 272 281 286 304 333 331 281 319 321 302 298 304 319 316 316 312 298 296 286 279 282 276 290 263 229 216 289 272 220 220 226 243 267 252 241 254 260 264 271 263 186 172 205 221
336 335 334 334 332 330 331 332 331 330 331 330 329 329 327 327 325 322 316 313 325 318 304 328 345 325 7 269 232 254 311 308 299 285 262 240 232 259 264 267 264 248 252 259 270 279 287 296 303 287 288 305 290 282 302 312 324 314 309 293 295 311 292 263 232 260 291 267 217 103 285 270 242 227 231 246 270 276 262 246 246 253 264 259 183 179 210 206
336 335 334 333 331 330 334 336 335 336 336 334 333 331 329 329 322 315 309 300 303 308 305 333 57 116 60 266 271 310 317 296 281 269 252 230 229 252 256 252 252 246 247 254 262 267 270 277 284 282 279 267 273 306 318 315 319 315 309 298 290 293 285 287 262 260 285 268 159 82 274 273 273 251 228 230 245 267 272 246 229 244 254 255 199 193 217 196
336 335 334 332 332 335 339 340 339 341 339 337 336 334 332 330 319 311 308 281 261 281 302 333 137 146 332 282 287 326 325 279 250 250 239 227 228 242 247 238 238 241 243 250 257 262 264 268 277 274 273 297 331 328 325 321 316 330 306 302 298 262 291 305 280 227 247 264 161 123 268 274 274 267 243 225 223 241 266 250 208 234 245 245 218 209 225 197
336 336 334 332 335 339 341 341 343 343 339 338 338 338 340 335 326 320 309 224 220 220 245 353 179 177 311 284 299 317 292 234 250 256 241 234 228 232 242 235 231 235 239 246 252 255 257 259 242 212 251 319 342 319 331 341 324 332 232 275 291 287 303 308 288 240 234 268 260 178 241 269 269 272 256 229 225 226 255 255 192 223 247 243 225 212 218 187
337 336 334 333 337 340 341 343 344 342 339 340 340 342 350 343 333 332 169 168 185 204 218 337 45 120 266 277 303 307 271 246 255 255 242 232 226 234 241 228 222 228 230 238 246 249 247 241 229 222 276 299 241 17 359 340 319 317 286 270 281 285 287 290 294 295 288 284 273 247 245 261 260 267 268 239 234 231 246 253 193 210 247 247 233 220 215 183
337 336 334 336 340 340 341 343 342 341 339 338 342 346 355 341 328 332 125 136 144 181 246 295 352 62 273 275 302 300 296 279 249 247 244 233 227 234 236 222 212 217 224 238 240 233 199 228 219 218 315 318 184 126 188 252 253 272 284 292 293 290 285 276 279 296 303 285 271 269 254 256 256 255 257 238 234 231 239 250 206 191 240 251 239 229 221 187
337 336 335 340 343 340 339 341 342 341 337 340 350 353 351 339 329 133 131 135 110 68 279 271 198 101 289 286 289 294 298 283 243 238 236 231 226 229 234 239 239 160 98 357 229 210 181 241 235 197 254 245 222 196 205 233 238 254 272 277 285 290 284 277 279 288 296 286 267 262 253 251 254 249 242 235 232 222 228 253 230 171 228 258 248 242 226 191
337 335 337 342 344 339 337 340 343 342 338 342 352 356 357 352 355 349 267 168 182 214 233 236 210 244 284 283 287 296 300 281 232 241 245 242 214 207 224 236 280 58 232 238 239 219 173 199 222 211 221 223 225 218 220 241 250 263 277 279 280 280 279 280 286 296 304 293 263 253 259 256 259 249 229 220 224 223 227 251 253 175 199 245 245 247 231 204
337 336 339 343 343 339 336 338 344 347 346 351 356 1 15 8 25 332 317 288 239 214 224 240 232 246 259 268 282 289 295 270 257 280 284 287 169 162 199 199 210 252 235 231 243 258 196 217 233 219 218 222 226 222 219 238 265 275 273 283 285 277 286 286 282 291 301 296 278 274 282 284 290 267 229 212 215 228 228 233 248 216 188 201 211 228 233 220
338 337 340 344 343 339 338 339 348 355 355 1 4 357 23 60 76 355 333 309 286 233 224 245 241 250 259 266 268 268 271 313 299 290 305 329 132 156 216 173 234 273 260 241 242 268 240 238 240 228 224 225 230 223 218 247 271 280 282 282 284 287 301 291 279 288 303 302 297 301 303 289 293 298 268 234 220 230 232 222 236 238 209 201 205 215 227 216
340 340 344 346 342 339 340 342 354 4 359 355 349 340 32 50 24 346 346 288 292 285 237 238 232 248 266 268 260 257 272 300 289 310 350 10 86 29 41 38 342 314 307 314 289 280 264 266 247 231 224 211 237 241 223 267 275 264 270 271 276 285 292 287 291 304 309 304 296 302 310 287 278 306 300 267 244 251 259 243 241 244 231 217 207 211 226 204
344 344 348 347 342 341 343 347 5 9 3 1 353 358 23 1 340 338 344 202 289 290 248 231 230 240 269 280 281 298 282 266 303 5 18 29 12 14 59 61 334 303 303 349 342 309 288 290 266 228 292 237 245 257 210 231 258 244 249 256 260 269 267 269 292 307 310 305 296 302 310 291 279 299 287 275 278 285 295 301 291 279 264 237 198 186 218 210
346 348 349 349 344 341 344 352 8 3 5 36 25 5 3 347 332 338 5 92 321 286 252 235 235 272 297 297 300 291 264 346 48 32 31 42 24 354 83 119 234 269 280 14 345 299 285 296 298 18 331 292 261 261 230 212 242 251 238 238 241 255 269 276 292 309 314 301 304 352 329 288 295 295 282 285 285 279 291 298 287 286 286 273 238 199 196 198
348 349 350 351 346 344 353 1 353 354 359 33 7 348 347 342 332 349 47 63 351 291 312 349 273 317 320 320 319 330 7 9 56 39 28 50 50 289 261 133 170 250 248 92 295 264 271 304 308 295 240 245 248 253 249 216 227 258 221 216 223 228 254 279 295 293 269 270 299 40 123 272 302 294 275 286 287 275 274 271 267 273 281 276 262 238 202 182
350 351 349 352 352 350 357 318 334 348 345 332 341 337 338 337 328 347 43 54 10 332 335 333 327 330 326 325 324 357 27 350 31 28 22 86 104 272 269 249 175 202 199 153 261 244 257 299 298 290 222 218 241 238 248 223 224 245 195 178 200 219 239 259 274 269 245 275 304 339 168 258 292 275 262 292 295 285 275 265 258 259 266 268 266 259 238 199
352 352 347 354 358 347 337 319 323 334 312 321 334 334 331 330 325 4 69 76 357 341 344 313 316 321 323 328 341 34 33 3 15 354 357 104 56 356 238 240 198 203 177 151 277 243 222 264 270 275 252 228 242 222 207 222 229 231 205 161 219 238 251 253 255 258 278 356 294 269 185 240 270 263 269 344 289 281 274 263 257 255 259 263 264 264 258 235
354 353 346 352 357 339 335 327 308 307 324 328 335 333 327 328 18 49 82 100 328 330 153 324 328 325 327 339 12 33 17 26 32 325 326 48 12 2 262 240 210 224 192 171 237 253 229 238 247 264 263 247 255 236 198 214 223 179 48 357 317 292 289 282 267 251 123 87 256 240 175 198 264 262 262 266 262 263 265 266 260 252 252 256 259 260 260 251
355 353 341 340 345 330 331 328 315 319 327 324 323 325 325 351 64 51 50 34 332 318 292 341 341 333 341 357 19 13 7 17 15 347 344 358 354 1 358 274 248 240 227 198 228 254 256 248 240 241 239 236 254 248 200 207 204 119 77 23 330 318 310 298 285 240 117 210 249 237 176 180 260 270 242 220 246 250 252 264 265 256 249 250 256 257 259 256
354 351 332 324 321 307 311 322 328 323 318 314 315 321 338 43 56 74 52 355 320 313 328 356 349 343 353 12 16 1 358 346 351 2 352 346 358 356 8 359 345 4 352 298 257 272 278 269 240 222 231 220 228 275 240 185 159 115 93 88 8 323 337 337 339 87 168 243 252 232 164 180 234 265 248 212 233 246 244 250 255 259 256 249 250 253 257 259
352 348 320 308 303 293 288 304 326 322 316 319 321 336 64 49 28 64 324 322 324 317 330 348 346 343 349 12 13 350 343 333 352 3 345 343 15 349 20 71 336 0 3 339 318 306 297 275 247 243 259 161 137 265 323 358 155 131 108 117 164 268 4 349 247 162 217 248 264 171 147 183 218 248 254 239 230 237 240 244 246 252 257 255 248 246 250 255
350 343 317 301 301 300 302 317 331 329 324 329 336 28 81 71 38 348 309 321 296 289 294 322 342 348 352 12 5 339 333 332 355 358 338 344 22 340 337 179 174 64 326 316 329 325 322 310 291 17 352 69 134 171 296 303 184 154 140 156 179 187 195 228 228 248 244 259 280 241 160 202 221 236 246 244 237 236 239 246 248 247 253 257 254 248 246 247
349 338 327 313 309 312 322 337 346 333 324 339 11 55 58 71 39 321 326 292 260 282 303 321 346 354 1 6 340 346 355 339 0 356 335 351 16 336 314 305 282 131 244 285 333 346 330 313 293 98 357 206 195 203 193 163 166 190 170 151 164 172 178 207 204 220 244 269 284 244 163 202 206 219 236 240 243 240 239 244 249 251 250 256 261 254 246 248
350 327 328 325 321 329 343 348 355 335 321 1 58 58 58 73 280 316 320 287 281 315 325 343 6 357 348 334 325 24 39 333 4 2 334 343 344 284 275 290 254 213 306 322 344 331 251 260 264 299 303 225 235 236 164 124 85 250 137 108 191 191 161 190 216 201 212 290 272 227 217 217 216 262 266 263 269 250 239 242 243 250 250 250 259 252 236 245
357 329 327 325 329 345 347 336 341 329 328 55 65 46 66 101 303 349 317 313 329 329 340 5 13 355 342 327 316 355 3 314 355 2 329 331 315 256 218 268 239 139 60 329 312 313 275 267 282 310 310 260 236 233 172 161 234 233 147 185 223 177 144 172 264 234 175 265 258 206 246 257 251 279 271 264 268 258 246 245 236 242 248 246 253 253 241 234
9 6 336 329 340 355 334 309 313 324 21 77 68 44 50 297 342 8 325 337 343 346 29 27 355 359 350 323 309 326 332 317 348 9 336 328 311 252 192 266 256 144 131 225 251 231 273 284 284 286 286 278 292 276 205 195 179 140 187 218 198 131 119 138 263 300 213 250 262 203 236 249 224 256 260 242 250 252 247 247 239 238 242 242 251 259 265 253
5 8 346 349 357 357 318 310 312 335 62 67 42 32 20 339 39 46 344 351 355 16 52 29 347 25 352 332 312 318 328 325 342 3 331 307 291 296 321 287 264 208 181 197 243 225 258 289 279 232 246 298 348 338 266 216 202 211 227 195 128 161 268 146 188 250 224 252 281 231 232 242 220 231 246 226 232 241 238 234 226 219 218 230 259 278 298 290
9 25 6 0 3 352 312 305 1 50 66 55 24 14 333 351 44 51 9 20 28 42 47 355 344 11 335 340 314 306 319 319 327 347 338 310 308 308 311 225 288 285 213 190 213 243 237 279 271 214 247 335 333 296 260 258 243 249 250 230 186 193 191 190 190 190 197 233 273 263 240 241 219 219 236 234 232 228 215 208 203 207 209 217 250 276 283 281
19 52 349 359 3 350 284 235 44 50 65 63 30 332 294 348 31 8 14 38 50 58 40 347 352 344 319 326 315 302 292 300 312 332 257 289 301 300 297 144 311 314 300 257 241 222 181 236 259 266 331 335 294 222 200 212 219 251 251 237 241 237 218 237 216 183 195 219 244 257 263 258 219 192 227 235 232 216 198 204 224 230 236 232 240 264 273 272
22 57 327 358 2 358 137 110 19 38 74 27 8 321 306 18 33 351 358 36 63 72 48 24 6 339 302 306 317 317 311 304 298 281 257 277 303 310 322 326 315 312 313 298 271 210 185 235 258 279 298 283 261 241 217 214 206 217 240 223 224 241 248 257 245 216 210 224 229 234 272 275 235 178 220 226 208 188 183 201 239 254 260 261 258 263 272 271
42 45 316 356 1 7 87 66 349 25 66 354 316 291 319 30 40 348 347 22 41 9 347 43 19 308 272 258 291 317 311 304 287 271 235 247 280 277 278 304 304 294 300 299 276 218 209 251 256 263 268 262 268 270 249 234 222 220 237 224 206 234 228 233 243 233 214 236 243 231 265 273 226 158 202 205 178 185 193 211 252 265 265 273 281 278 276 272
54 315 305 354 2 18 75 49 348 7 1 308 303 321 325 19 33 347 349 10 15 354 335 313 200 261 245 231 287 291 257 276 238 230 247 264 267 255 265 289 295 297 302 289 284 262 237 250 263 274 268 252 266 291 347 302 233 225 243 222 209 229 234 236 245 274 253 230 231 231 252 258 192 144 168 170 183 252 276 266 268 274 277 279 279 277 272 268
324 271 287 349 1 21 73 72 1 351 309 306 354 350 333 1 74 7 5 350 331 1 338 286 233 238 248 272 303 258 199 213 232 233 247 261 253 252 271 281 283 298 304 242 206 335 277 253 265 297 303 288 295 333 353 343 175 228 248 223 220 226 234 248 254 269 255 205 185 221 254 251 176 150 176 179 209 251 256 252 259 267 272 273 271 271 267 259
329 301 269 333 355 24 80 113 70 359 319 339 12 2 351 345 271 322 347 319 254 225 287 287 273 264 268 291 308 269 200 181 234 257 241 251 274 275 274 276 277 283 283 272 258 218 265 272 237 290 309 308 308 301 289 297 248 243 249 231 231 222 221 235 225 233 245 200 178 216 248 253 148 144 177 188 201 221 232 240 249 253 256 260 261 262 260 252
24 10 318 323 351 30 51 64 77 32 335 2 20 359 5 347 302 302 318 293 234 236 244 275 281 284 296 312 323 309 264 197 219 262 272 263 272 274 277 286 283 274 276 283 280 183 232 262 233 245 264 269 279 282 281 283 270 274 277 265 256 234 222 226 220 230 236 223 226 232 242 261 256 195 194 207 210 218 226 228 229 233 241 247 252 253 250 245
62 48 4 342 332 5 4 1 43 14 328 38 87 328 352 347 321 312 308 297 285 274 262 268 286 313 315 320 331 309 285 236 222 246 267 258 250 279 294 294 275 266 276 287 297 141 278 287 264 250 254 260 269 274 278 283 276 275 281 283 288 280 246 222 230 243 214 206 255 238 213 253 266 250 226 226 225 227 234 230 220 217 224 230 236 239 238 238
48 149 111 95 277 329 347 328 339 331 318 341 102 346 356 351 338 331 306 305 315 315 318 306 307 316 313 319 331 294 293 298 250 256 275 275 293 314 312 307 282 279 301 301 294 289 272 286 297 288 281 280 277 273 276 277 268 265 279 293 301 306 302 265 249 256 230 215 257 258 220 253 270 279 274 261 250 243 243 244 236 224 222 224 227 229 229 228
39 24 327 43 254 240 239 283 303 318 328 341 0 351 352 345 337 327 295 309 326 316 319 311 310 316 317 318 322 287 306 320 304 301 308 307 317 326 317 310 299 305 336 309 295 331 172 270 298 315 303 295 292 288 285 287 289 283 279 296 311 319 319 308 284 275 244 232 255 270 277 277 275 278 282 280 275 262 245 240 237 229 223 221 222 223 221 216
43 306 315 0 324 277 254 292 319 4 12 9 7 337 333 339 337 322 291 292 325 318 323 318 314 320 322 320 317 284 296 298 274 276 289 305 311 301 257 279 282 313 327 316 308 333 146 295 310 321 308 297 301 308 313 321 322 306 315 341 344 343 338 330 331 327 275 244 259 265 268 276 272 269 277 278 275 271 258 239 224 218 215 211 210 210 210 209
4 273 284 42 324 309 323 322 344 40 25 9 0 324 320 326 327 323 300 257 264 315 320 317 318 323 324 320 314 297 299 298 273 265 268 273 267 229 202 249 281 323 319 315 315 290 216 300 307 320 319 299 307 321 323 320 307 298 349 355 350 346 341 327 323 338 320 287 283 281 265 267 276 284 289 283 288 303 310 328 350 342 346 345 237 214 206 203
7 311 313 81 285 323 358 340 352 44 28 346 339 323 312 309 321 343 336 297 303 316 309 314 327 330 331 328 322 310 301 292 279 274 272 260 245 230 235 260 288 312 301 304 310 288 271 305 308 329 318 295 311 321 314 312 323 350 352 348 342 336 334 324 312 333 336 319 283 293 283 271 285 305 304 297 317 350 329 342 4 354 347 349 322 266 209 188